STARLINK-1191, 45222

Orbit data source: Space-Track

STARLINK-1191, 45222 is a payload satellite owned by SpaceX/Seattle (US) in LEO that was launched on Mon, 17 Feb 2020 UTC via an FALCON 9 launch vehicle from the Air Force Eastern Test Range (AFETR). Payload-class satellites include a variety of spacecraft equipped with specific instruments for various scientific and technological missions. These include communications satellites like Starlink; space stations such as the ISS; scientific satellites like the Hubble; Earth observation satellites from companies like Planet Labs, Umbra, and HawkEye 360; GPS; miniature CubeSats for education and research; and military/defense satellites.

Loading next visibility...
Identifier
45222, 2020-012AW
Orbit
LEO
Country
Flag of USUS
Related business
Manufacturer
SpaceX/Seattle
Mission
Operational Commercial Communications
Bus & Motor
STARLINK, Unknown motor
Mass
260 kg wet, ~248 kg dry
Launch date (UTC)
2020-02-17 (6 years ago)
Launch vehicle
FALCON 9
Launch site
Air Force Eastern Test Range (AFETR)
Object type
Payload
Rocket body
Debris
Shape & HBR
Box + 1 Pan, 10.1 m
Radar Cross Section
13.562 m², Large (>1 m²)

Expand to show TLE details & history
Last TLE update: 9 hours ago

TLE from 9 hours ago
0 STARLINK-1191
1 45222U 20012AW  25288.42917793 -.00000773  00000-0 -33006-4 0  9992
2 45222  53.0562 298.7189 0001565  82.7462 277.3705 15.06392890313504
Epoch: 2025-10-15T10:18Z
TLE epoch observation values (Epoch: 2025-10-15T10:18:00.973Z)
Latitude
0.00001°
Longitude
120.01147°
Altitude
547.974 km
Speed
7.589 km/s
True Right ascension
19h 54m 52s
True Declination
0° 00' 00"
Sunlit
Object was in daylight at epoch
Visualization orbit readout
Latitude
Unknown
Longitude
Unknown
Altitude
Unknown
Speed
Unknown
Apparent Right ascension
Unknown
Apparent Declination
Unknown
Sunlit
N/A
Visualization observer readout
Local Sidereal Time
14:16:13
Azimuth
Unknown
Elevation
Unknown
Doppler factor
Unknown
Orbital elements
Apogee altitude
548.588 km
Perigee altitude
546.42 km
Semi-major axis
6,925.641 km
Eccentricity
0.00016
Inclination
53.0562°
RAAN
298.7189°
Arg. of periapsis
82.7462°
True anomaly
277.35271°
Mean anomaly
277.3705°
Eccentric anomaly
277.36161°
Mean motion
3.76577 °/min
Orbital period
95.6 mins
BSTAR
-0.000033006
Loading maneuver chart data...
Computing Atmospheric mass density...
Loading historical data...
Loading historical data...
Loading historical data...
Loading historical data...
Loading historical data...
Loading historical data...
Loading historical data...

Documentation

Showing up to 5 results
|